Weather History for Boscombe Down, United Kingdom

Change the Weather History Date:

Tuesday, November 19, 2013

  Actual Average Record
Temperature  
Mean Temperature 35 °F -  
Max Temperature 42 °F 44 °F 57 °F (2011)
Min Temperature 28 °F 36 °F 28 °F (2005)
Degree Days  
Heating Degree Days 30    
Moisture  
Dew Point 32 °F    
Average Humidity 85    
Maximum Humidity 100    
Minimum Humidity 61    
Precipitation  
Precipitation 0.01 in - - ()
Sea Level Pressure  
Sea Level Pressure 29.97 in    
Wind  
Wind Speed 8 mph ()    
Max Wind Speed 17 mph    
Max Gust Speed -    
Visibility 6.2 miles    
Events Rain    
Averages and records for this station are not official NWS values.
T = Trace of Precipitation, MM = Missing Value Source: Averaged Metar Reports

Daily Weather History Graph

Daily Weather History Graph

Search for Another Location

Airport:

Trip Planner

Search our weather history database for the weather conditions in past years. The results will help you decide how hot, cold, wet, or windy it might be!

Date:

Astronomy

Nov. 19, 2013 Rise Set
Actual Time 7:30 AM GMT 4:13 PM GMT
Civil Twilight 6:53 AM GMT 4:50 PM GMT
Nautical Twilight 6:12 AM GMT 5:31 PM GMT
Astronomical Twilight 5:33 AM GMT 6:10 PM GMT
Moon 5:50 PM GMT (11/19) 9:00 AM GMT (11/19)
Length of Visible Light 9h 57m
Length of Day
8h 43m
Full, 97% of the Moon is Illuminated
Nov 19
Full
Nov 25
Last Quarter
Dec 3
New
Dec 9
First Quarter
Dec 17
Full

Hourly Weather History & Observations

Time (GMT) Temp. Windchill Dew Point Humidity Pressure Visibility Wind Dir Wind Speed Gust Speed Precip Events Conditions
12:00 AM 40 °F - 38 °F 91% 29.88 in 28 mi NNW 8.1 mph - - Rain Rain
12:50 AM 39.2 °F 33.6 °F 37.4 °F 93% 29.83 in 6.2 mi NW 8.1 mph - N/A   Partly Cloudy
1:50 AM 37.4 °F 31.4 °F 35.6 °F 93% 29.86 in 6.2 mi WNW 8.1 mph - N/A   Unknown
2:50 AM 35.6 °F 31.7 °F 33.8 °F 93% 29.86 in 6.2 mi WNW 4.6 mph - N/A   Unknown
3:00 AM 35 °F - 34 °F 95% 29.88 in 25 mi WNW 4.6 mph - -  
3:50 AM 33.8 °F 28.6 °F 33.8 °F 100% 29.86 in 6.2 mi NW 5.8 mph - N/A   Unknown
4:50 AM 33.8 °F 28.6 °F 32.0 °F 93% 29.86 in 6.2 mi WNW 5.8 mph - N/A   Partly Cloudy
5:50 AM 33.8 °F 27.0 °F 33.8 °F 100% 29.86 in 6.2 mi WNW 8.1 mph - N/A   Unknown
6:00 AM 34 °F - 33 °F 94% 29.91 in 28 mi WNW 8.1 mph - -  
6:50 AM 35.6 °F 29.2 °F 33.8 °F 93% 29.89 in - WNW 8.1 mph - N/A   Clear
7:50 AM 35.6 °F 29.2 °F 33.8 °F 93% 29.92 in - NW 8.1 mph - N/A   Clear
8:50 AM 37.4 °F 29.8 °F 33.8 °F 87% 29.92 in - NW 11.5 mph - N/A   Clear
9:00 AM 36 °F - 34 °F 89% 29.96 in 25 mi NW 11.5 mph - -   Scattered Clouds
9:50 AM 39.2 °F 30.5 °F 33.8 °F 81% 29.95 in 6.2 mi NW 16.1 mph - N/A   Partly Cloudy
10:50 AM 41.0 °F 32.5 °F 33.8 °F 76% 29.98 in 6.2 mi NNW 17.3 mph - N/A   Partly Cloudy
11:50 AM 41.0 °F 32.8 °F 32.0 °F 70% 29.98 in 6.2 mi NNW 16.1 mph - N/A   Partly Cloudy
12:00 PM 41 °F - 33 °F 62% 30.00 in 25 mi NNW 16.1 mph - -   Scattered Clouds
12:50 PM 42.8 °F 35.4 °F 32.0 °F 66% 29.98 in 6.2 mi NNW 15.0 mph - N/A   Partly Cloudy
1:50 PM 41.0 °F 33.5 °F 32.0 °F 70% 29.98 in 6.2 mi NNW 13.8 mph - N/A   Scattered Clouds
2:50 PM 41.0 °F 33.9 °F 32.0 °F 70% 29.98 in 6.2 mi NNW 12.7 mph - N/A   Partly Cloudy
3:00 PM 41 °F - 32 °F 61% 30.01 in 25 mi NNW 12.7 mph - -   Scattered Clouds
3:50 PM 39.2 °F 31.2 °F 32.0 °F 75% 30.01 in 6.2 mi NW 13.8 mph - N/A   Partly Cloudy
4:50 PM 35.6 °F 27.1 °F 32.0 °F 87% 30.04 in 6.2 mi NNW 12.7 mph - N/A   Partly Cloudy
5:50 PM 33.8 °F 25.8 °F 30.2 °F 87% 30.04 in - NNW 10.4 mph - N/A   Clear
6:00 PM 35 °F - 30 °F 77% 30.08 in 25 mi NNW 10.4 mph - -  
6:50 PM 33.8 °F 27.0 °F 30.2 °F 87% 30.06 in - NNW 8.1 mph - N/A   Clear
7:50 PM 32.0 °F 22.5 °F 30.2 °F 93% 30.06 in - NNW 12.7 mph - N/A   Clear
8:50 PM 30.2 °F 22.6 °F 28.4 °F 93% 30.06 in 6.2 mi WNW 8.1 mph - N/A   Unknown
9:00 PM 31 °F - 28 °F 84% 30.12 in 28 mi WNW 8.1 mph - -  
9:50 PM 30.2 °F 22.6 °F 28.4 °F 93% 30.06 in 6.2 mi NW 8.1 mph - N/A   Unknown
10:50 PM 28.4 °F 23.3 °F 26.6 °F 93% 30.06 in 6.2 mi NW 4.6 mph - N/A   Partly Cloudy
11:50 PM 28.4 °F 21.2 °F 26.6 °F 93% 30.06 in 6.2 mi WNW 6.9 mph - N/A   Unknown